Zurück zum Katalog

STARLINK-31529

AktivKommunikationVLEO
NORAD 59000·PAYLOAD·🇺🇸 United States

Gestartet Feb 23, 2024 von Vandenberg Space Force Base

Loading…

Nächste Überflüge (nächste 24 Stunden)

TLE

AktuellSource: CelesTrak SupGP

Epoche: Sep 15, 2026, 02:04 UTC

1 59000C 24036C   26258.08659722  .00006484  00000+0  19154-3 0  2583
2 59000  53.1575 274.7132 0001278  94.0324 238.1588 15.34392199    10

Verfolge STARLINK-31529 in Echtzeit mit AllMySat

Download on the App Store